Tracking 20241 objects as of 26-Jan-2020
HD Live streaming from Space Station
objects crossing your sky now

COSMOS 84

Track COSMOS 84 now!
10-day predictions
COSMOS 84 is classified as:


NORAD ID: 1574
Int'l Code: 1965-070E
Perigee: 1,474.9 km
Apogee: 1,578.1 km
Inclination: 56.1 °
Period: 116.4 minutes
Semi major axis: 7897 km
RCS: 0.553 m2 (medium)
Launch date: September 3, 1965
Source: Commonwealth of Independent States (former USSR) (CIS)
Launch site: TYURATAM MISSILE AND SPACE COMPLEX (TTMTR)
aabbcc
Your satellite tracking list
Your tracking list is empty




NASA's NSSDC Master Catalog

Two Line Element Set (TLE):
1  1574U 65070E   20025.53706566 -.00000079 +00000-0 +99783-4 0  9999
2  1574 056.0539 096.1215 0065335 041.4845 072.2185 12.37005405457546
Source of the keplerian elements: AFSPC